Dewpoint
19 18 18 18 18 16 13 15 16 23 26 31 31 33 35 40 42 42 43 44 44 39 39 39 39 39 39 37 32 31 32 34 35 35 35 37 35 35 34 33 31 29 28 28
18 19 19 19 18 18 17 15 14 13 24 32 31 32 34 36 38 40 42 42 41 40 39 39 37 37 35 32 31 33 34 34 33 34 35 37 35 33 35 28 26 30 29 28
17 18 20 19 15 14 14 13 13 11 30 32 31 31 33 35 36 39 40 41 40 40 39 37 36 33 32 31 33 34 33 31 31 31 31 31 31 30 25 25 24 25 27 27
18 18 17 15 14 14 13 13 10 13 18 26 29 30 32 34 35 37 39 40 40 39 39 37 33 32 33 35 33 31 30 29 29 31 30 28 27 24 25 25 26 25 27 26
16 15 15 12 13 13 12 13 11 12 11 12 29 31 31 33 34 35 38 39 40 39 38 35 32 32 35 34 31 30 29 29 30 29 29 26 25 27 27 26 26 24 26 27
12 13 12 12 11 12 13 11 12 13 12 10 25 31 30 31 33 34 36 37 38 36 33 33 32 34 34 32 31 31 30 30 30 31 25 26 25 25 25 24 25 25 26 26
11 11 12 11 8 10 10 10 11 12 13 21 30 30 31 33 34 35 35 36 36 33 33 32 32 35 34 31 31 31 31 30 30 26 27 26 25 24 24 24 26 26 27 27
13 12 11 12 12 13 14 13 14 11 14 24 32 29 30 33 35 36 36 36 34 33 33 32 34 34 31 32 36 35 32 29 26 26 26 26 26 25 25 27 27 27 26 27
20 13 15 16 15 16 15 19 21 17 23 27 30 31 33 33 34 35 35 35 34 33 33 33 34 32 33 37 38 35 35 27 25 25 25 25 25 26 26 26 25 26 25 26
22 15 16 17 17 18 16 22 17 20 19 27 32 32 31 32 33 34 35 34 34 34 33 33 32 33 36 37 37 36 36 26 24 24 26 26 26 25 24 22 22 24 23 22
23 25 17 16 18 16 19 19 21 21 21 22 31 29 35 35 35 35 35 34 33 33 33 33 33 35 36 37 36 36 28 24 23 23 26 25 23 22 21 20 21 21 22 21
22 24 21 19 19 17 20 18 17 17 16 18 30 31 36 36 36 36 35 35 34 34 34 32 33 34 36 37 36 32 26 24 23 22 24 20 19 19 18 19 19 21 20 21
31 26 17 22 26 27 20 12 11 12 19 20 30 31 34 35 36 35 35 35 35 34 33 32 31 32 37 37 37 34 25 23 22 21 17 17 16 18 17 17 19 20 20 20
37 24 23 25 28 25 14 13 18 19 17 31 32 32 33 34 35 35 35 35 35 34 34 30 31 37 38 38 37 37 24 21 20 15 13 14 15 18 16 18 19 19 20 20
32 23 19 17 16 14 15 18 19 20 28 31 31 29 33 35 35 35 35 35 34 34 33 35 36 37 38 36 36 30 21 19 16 11 12 14 16 17 18 19 20 20 20 20
30 24 21 17 16 17 17 19 20 21 24 26 27 28 33 35 35 34 34 34 33 33 35 35 36 38 36 35 34 23 20 16 11 13 14 17 17 18 18 21 21 20 20 20
28 25 24 19 19 20 21 21 22 21 24 28 27 28 32 33 34 34 34 34 32 33 33 34 37 37 36 36 33 19 15 13 14 15 16 18 20 19 18 19 21 19 18 19
27 27 26 23 22 15 28 26 24 22 23 25 29 32 34 35 35 34 35 32 32 32 33 36 38 36 36 37 23 17 14 15 16 17 18 20 20 19 19 19 17 18 16 16
25 28 24 23 22 25 22 23 23 22 22 26 30 34 35 35 34 34 34 33 33 34 35 38 37 36 35 22 19 17 16 15 16 19 20 20 21 17 17 14 15 14 12 13
24 30 25 28 23 20 25 24 29 27 25 29 30 34 35 36 33 34 35 35 35 36 38 36 37 34 23 22 19 18 16 16 19 19 20 22 17 17 17 13 14 11 11 11
21 25 28 27 23 27 28 28 28 26 30 38 38 37 37 36 36 36 36 36 37 37 37 37 26 22 22 21 18 17 18 17 17 20 22 24 18 16 18 16 15 15 15 14
22 23 25 26 25 27 29 29 31 36 40 38 38 37 36 36 36 36 37 37 36 36 36 26 22 20 19 20 20 18 16 18 21 23 22 21 20 17 18 17 17 18 18 17
31 34 36 35 35 39 38 37 38 40 39 38 38 38 37 36 36 36 36 36 35 35 25 23 22 17 19 20 18 18 20 22 23 21 17 15 18 18 19 18 18 19 20 18
34 38 35 36 36 36 37 39 40 40 39 39 39 38 38 36 36 36 35 34 27 24 24 24 21 20 21 22 23 21 21 22 20 17 14 16 17 17 19 18 19 18 20 16
35 38 38 36 36 37 38 38 38 38 38 39 39 38 36 35 35 34 30 26 26 26 24 22 19 17 18 20 21 24 21 16 12 12 16 17 16 17 18 19 19 19 20 17
37 38 36 35 37 37 37 38 38 38 38 39 37 36 36 34 32 29 28 26 27 23 21 22 23 14 16 19 20 21 18 18 17 13 16 19 16 16 18 19 19 21 23 22
Wind_Speed
13 11 18 24 25 25 19 12 10 5 7 13 26 25 24 17 25 26 22 26 26 28 24 26 25 25 24 24 25 20 20 15 13 8 5 6 7 11 6 3 8 7 6 5
15 20 27 25 23 20 5 11 14 17 13 27 29 23 22 23 16 24 26 24 25 24 24 23 24 23 25 22 21 19 16 15 12 9 6 3 8 8 7 12 8 3 4 4
20 23 23 24 6 10 8 8 11 12 18 27 30 12 16 16 22 22 22 20 21 21 22 21 23 24 23 22 19 17 16 14 13 12 9 11 9 7 12 11 13 14 5 2
14 26 21 7 2 9 11 15 13 6 5 12 6 8 11 16 18 18 18 20 20 20 20 20 23 22 21 19 18 17 15 12 9 10 13 14 12 11 8 9 12 15 14 11
17 18 16 3 6 5 16 16 12 6 10 13 9 14 13 17 16 14 16 17 19 19 19 22 21 20 19 18 17 15 11 8 7 9 11 12 12 10 9 12 15 17 14 13
16 12 4 2 6 7 8 5 13 12 7 14 6 10 8 3 18 15 17 18 19 21 22 21 19 21 19 17 15 11 7 4 6 6 10 10 14 14 14 14 15 16 12 13
9 14 7 5 3 10 8 3 4 5 5 4 13 16 7 10 13 17 17 15 18 20 19 19 20 18 16 15 10 7 3 4 5 11 10 11 12 13 13 13 11 14 14 12
15 16 13 9 4 2 7 9 9 8 4 7 14 6 4 14 17 16 15 16 16 16 15 17 19 18 17 14 11 6 6 6 11 11 12 12 12 10 9 10 9 11 12 14
9 6 13 8 1 1 4 7 6 1 5 11 7 6 6 15 12 15 15 15 15 14 17 20 18 19 17 12 7 4 7 8 12 11 10 11 11 12 12 12 12 10 13 12
3 4 11 3 2 6 3 8 6 6 1 5 4 4 11 17 16 16 16 16 15 16 19 19 20 18 14 9 4 7 6 11 8 7 7 9 11 12 12 13 14 13 13 15
7 6 3 6 6 12 11 15 8 3 4 4 7 4 10 17 16 18 16 16 17 18 19 19 19 16 12 7 5 8 12 10 9 7 9 12 13 12 13 13 13 13 13 15
3 2 4 12 8 8 15 11 9 3 5 4 8 4 14 19 19 18 15 14 16 18 20 21 19 15 11 7 9 9 12 11 9 10 11 12 13 11 12 13 14 13 14 16
5 5 3 4 6 12 8 12 11 7 3 7 8 7 15 18 19 18 16 15 16 18 20 20 16 14 11 11 8 7 9 9 9 12 12 12 12 11 12 14 15 15 16 18
3 6 5 6 5 4 8 14 14 14 6 8 9 22 17 18 20 18 16 15 16 16 17 19 16 15 11 7 5 8 10 10 10 12 12 13 13 11 13 15 16 16 17 18
4 6 13 13 12 13 13 17 17 18 16 11 18 21 18 17 19 17 18 16 17 13 18 18 16 11 6 6 6 7 10 11 11 12 12 13 15 13 15 16 17 16 18 19
5 3 11 7 10 11 11 12 14 18 16 22 24 18 19 18 18 15 14 14 14 19 20 18 14 9 8 4 6 9 11 12 12 13 14 12 14 14 17 18 19 19 20 20
3 5 3 4 11 10 8 7 15 16 18 18 13 14 15 18 19 7 13 19 22 21 18 15 11 9 6 2 6 10 11 13 15 14 14 14 15 16 16 18 18 20 20 21
4 3 3 6 8 3 4 13 18 19 17 20 23 25 25 24 24 25 17 23 20 18 16 13 9 9 2 3 10 13 16 16 15 14 13 13 15 17 15 18 21 20 19 20
4 3 5 5 4 7 9 6 10 19 12 17 24 26 26 26 28 19 20 21 20 18 14 11 9 5 2 13 13 16 17 15 13 14 15 14 14 17 15 20 21 19 19 19
7 7 9 4 4 3 9 9 17 18 8 12 21 25 27 18 9 8 17 18 17 15 13 12 6 5 15 11 16 17 15 13 14 14 13 14 14 16 13 17 17 16 16 17
2 2 6 9 2 3 11 13 7 1 5 19 22 18 15 8 14 21 19 16 13 13 11 6 12 15 11 13 17 15 12 12 10 9 12 14 14 15 11 13 12 15 16 17
7 8 5 5 4 5 13 9 4 13 18 25 24 25 30 28 25 22 19 16 13 11 6 14 18 17 18 16 17 15 11 8 9 11 13 16 13 14 9 13 12 12 15 16
4 3 5 3 6 9 18 22 19 24 25 23 27 23 27 25 23 21 18 15 12 8 15 17 17 17 16 15 13 11 8 11 11 10 13 16 16 15 11 12 13 14 15 15
4 6 11 10 14 21 22 23 25 26 25 24 25 24 23 26 23 20 16 12 15 16 15 17 18 16 14 12 9 5 9 12 13 14 15 16 18 18 14 12 11 14 15 15
2 8 9 20 21 22 19 22 23 24 24 25 24 24 23 25 21 17 18 18 18 19 17 16 16 13 10 7 8 11 10 14 13 16 15 15 16 18 18 15 12 13 10 9
3 12 10 9 16 17 17 20 22 24 24 25 27 23 20 21 20 20 19 17 19 18 16 16 13 11 7 8 9 9 13 14 15 15 16 13 15 17 17 17 18 17 15 4
Wind_Direction
221 221 239 244 240 244 256 289 326 338 255 74 82 70 52 91 102 102 94 98 95 93 92 90 90 90 87 72 78 70 65 51 49 30 2 6 341 327 338 144 80 88 84 61
231 229 235 242 247 257 253 317 320 328 61 105 96 78 73 59 87 102 105 102 101 100 92 87 88 84 80 78 77 71 67 54 42 30 10 312 288 296 333 84 55 99 134 99
219 237 238 246 282 341 329 312 284 278 80 101 99 69 87 72 81 88 95 103 103 106 101 99 85 82 81 78 76 72 66 55 35 19 4 356 8 15 29 18 8 359 359 24
246 255 256 242 337 334 305 300 309 341 128 164 231 124 111 97 80 83 96 100 108 106 104 102 92 88 90 85 79 73 63 48 24 14 19 31 26 18 356 7 8 10 11 16
247 263 267 233 219 255 281 294 310 326 317 322 104 96 140 128 115 102 99 104 110 114 114 102 105 107 100 89 82 76 64 43 13 6 44 31 14 351 358 15 23 4 8 18
248 282 302 163 4 323 246 4 322 316 296 283 11 118 139 176 132 113 101 102 108 102 101 108 109 102 101 95 86 79 69 19 346 33 42 34 23 16 25 16 10 355 357 357
232 247 228 119 334 309 298 232 287 299 273 136 89 60 109 70 111 120 112 112 110 112 116 120 116 111 104 95 93 91 67 347 43 44 34 40 31 23 17 3 354 0 2 353
239 239 210 147 182 279 303 217 228 278 320 132 43 89 138 100 89 102 112 116 121 126 140 127 121 114 105 89 64 35 358 49 59 48 42 32 28 16 1 1 8 8 359 344
359 91 74 76 29 297 334 11 277 298 37 88 107 77 105 132 129 128 140 140 137 146 123 119 113 105 97 79 43 3 0 55 59 50 40 30 14 6 10 13 11 2 355 349
325 126 133 170 213 287 272 2 0 18 314 110 109 112 155 161 157 146 140 144 148 133 122 114 107 103 95 77 29 343 355 65 53 42 46 32 20 19 18 13 5 359 353 345
5 30 146 88 46 49 37 34 25 4 55 102 132 107 97 130 138 134 136 140 139 133 128 115 107 104 95 65 359 333 67 53 30 32 52 39 25 18 17 8 357 350 346 338
24 65 7 113 71 45 68 53 34 45 326 324 107 115 102 114 118 121 126 133 136 135 128 121 119 115 100 56 24 66 62 39 26 37 56 38 22 11 12 359 347 342 338 332
356 19 20 63 39 21 62 49 24 353 19 346 123 156 128 120 121 120 121 125 127 125 125 124 123 117 97 60 27 29 70 45 30 51 47 29 10 8 6 350 340 342 339 335
45 52 45 117 86 17 55 52 44 42 45 78 102 139 142 131 127 128 132 132 133 134 137 127 115 103 87 64 17 338 66 43 46 49 37 23 7 6 2 350 347 349 341 336
67 83 84 76 68 60 61 71 53 54 76 100 135 111 109 112 125 132 136 138 134 139 116 106 106 95 75 72 354 45 62 48 51 37 34 26 12 4 359 355 348 345 342 337
23 96 100 104 107 94 80 97 79 48 74 106 109 114 129 135 129 132 141 142 131 105 107 106 101 89 87 51 1 71 71 57 51 37 28 23 9 3 1 355 348 347 347 347
78 134 126 136 80 105 73 54 97 76 66 121 117 149 131 102 82 93 116 99 96 102 105 103 97 94 103 356 3 61 76 62 50 37 18 16 9 2 358 355 356 354 359 356
120 132 91 133 80 120 144 77 106 105 109 103 96 99 99 91 74 58 68 105 100 101 103 100 106 111 152 296 60 63 65 59 44 26 11 18 5 354 6 11 4 9 2 1
341 122 86 124 125 137 131 147 137 126 84 124 122 119 115 104 80 60 72 84 98 101 105 112 126 139 50 69 65 67 59 49 28 19 20 7 5 0 18 23 16 15 6 4
342 66 122 107 140 203 173 141 115 107 91 109 129 143 143 133 112 126 96 95 96 103 117 129 148 88 72 75 80 70 53 36 33 19 6 348 7 3 35 31 29 17 9 4
258 63 136 140 124 51 119 105 82 175 151 92 94 98 123 97 124 124 110 102 109 123 137 129 93 79 62 77 83 70 57 40 17 1 355 357 355 2 47 36 36 17 6 359
164 174 169 145 148 159 131 106 147 132 100 103 97 104 103 106 109 111 112 117 129 142 148 108 87 72 62 65 70 59 36 0 350 4 3 3 357 16 40 36 21 3 3 3
83 158 112 94 119 87 89 112 114 112 115 113 113 115 117 119 119 122 127 140 154 154 110 102 95 82 73 67 64 50 348 329 334 5 16 16 13 17 31 27 11 358 2 13
114 92 127 93 96 94 93 92 102 108 115 119 121 123 122 121 124 131 142 145 111 106 107 99 92 82 69 58 49 11 339 358 45 40 29 22 23 16 13 9 5 359 5 18
214 102 114 110 112 89 90 104 110 110 114 113 116 119 120 122 131 132 120 109 97 93 85 87 91 86 75 49 16 356 25 43 42 28 20 28 26 12 5 4 358 354 11 39
52 133 132 166 150 126 128 116 116 116 115 118 119 119 117 122 121 117 113 104 106 102 98 95 96 95 65 23 13 21 44 38 41 31 18 14 25 14 7 12 12 10 9 49